Time,TemperatureF,DewpointF,PressureIn,WindDirection,WindDirectionDegrees,WindSpeedMPH,WindSpeedGustMPH,Humidity,HourlyPrecipIn,Conditions,Clouds,dailyrainin,SoftwareType,DateUTC
2013-03-24 00:11:00,27.2,22.0,30.19,NE,41,0.0,-999.0,80,-99.99,,,0.00,weatherlink.com 1.10,2013-03-24 04:11:00,
2013-03-24 00:56:00,27.1,22.0,30.18,NNE,15,0.0,-999.0,80,-99.99,,,0.00,weatherlink.com 1.10,2013-03-24 04:56:00,
2013-03-24 01:11:00,26.8,21.0,30.18,NE,37,0.0,-999.0,79,-99.99,,,0.00,weatherlink.com 1.10,2013-03-24 05:11:00,
2013-03-24 01:26:00,26.1,20.0,30.18,NE,37,0.0,-999.0,79,-99.99,,,0.00,weatherlink.com 1.10,2013-03-24 05:26:00,
2013-03-24 01:56:00,24.6,20.0,30.19,NE,38,0.0,-999.0,82,-99.99,,,0.00,weatherlink.com 1.10,2013-03-24 05:56:00,
2013-03-24 03:11:00,24.6,20.0,30.17,NE,38,0.0,-999.0,84,-99.99,,,0.00,weatherlink.com 1.10,2013-03-24 07:11:00,
2013-03-24 03:26:00,25.1,21.0,30.16,NE,38,0.0,-999.0,83,-99.99,,,0.00,weatherlink.com 1.10,2013-03-24 07:26:00,
2013-03-24 03:41:00,25.4,21.0,30.16,NE,38,0.0,-999.0,83,-99.99,,,0.00,weatherlink.com 1.10,2013-03-24 07:41:00,
2013-03-24 03:56:00,25.4,21.0,30.16,NE,37,0.0,-999.0,83,-99.99,,,0.00,weatherlink.com 1.10,2013-03-24 07:56:00,
2013-03-24 04:11:00,25.3,21.0,30.16,NE,37,0.0,-999.0,83,-99.99,,,0.00,weatherlink.com 1.10,2013-03-24 08:11:00,
2013-03-24 04:41:00,25.3,21.0,30.15,NE,38,0.0,-999.0,85,-99.99,,,0.00,weatherlink.com 1.10,2013-03-24 08:41:00,
2013-03-24 05:26:00,25.9,22.0,30.14,NE,38,0.0,-999.0,84,-99.99,,,0.00,weatherlink.com 1.10,2013-03-24 09:26:00,
2013-03-24 05:41:00,26.1,22.0,30.14,NE,38,0.0,-999.0,84,-99.99,,,0.00,weatherlink.com 1.10,2013-03-24 09:41:00,
2013-03-24 07:26:00,27.0,23.0,30.14,NE,38,0.0,-999.0,84,-99.99,,,0.00,weatherlink.com 1.10,2013-03-24 11:26:00,
2013-03-24 07:41:00,27.4,23.0,30.14,NE,37,0.0,-999.0,83,-99.99,,,0.00,weatherlink.com 1.10,2013-03-24 11:41:00,
2013-03-24 08:56:00,29.9,25.0,30.14,ESE,117,1.0,-999.0,83,-99.99,,,0.00,weatherlink.com 1.10,2013-03-24 12:56:00,
2013-03-24 09:41:00,29.8,25.0,30.13,NNE,22,0.0,-999.0,82,-99.99,,,0.00,weatherlink.com 1.10,2013-03-24 13:41:00,
2013-03-24 10:11:00,30.0,24.0,30.13,North,5,0.0,-999.0,79,-99.99,,,0.00,weatherlink.com 1.10,2013-03-24 14:11:00,
2013-03-24 11:56:00,30.2,24.0,30.12,NE,36,1.0,-999.0,79,-99.99,,,0.00,weatherlink.com 1.10,2013-03-24 15:56:00,
2013-03-24 14:11:00,29.4,26.0,30.10,NE,35,1.0,-999.0,86,-99.99,,,0.00,weatherlink.com 1.10,2013-03-24 18:11:00,
2013-03-24 15:41:00,29.3,24.0,30.06,ENE,66,3.0,-999.0,80,-99.99,,,0.00,weatherlink.com 1.10,2013-03-24 19:41:00,
2013-03-24 16:11:00,29.5,24.0,30.05,NE,44,4.0,-999.0,80,-99.99,,,0.00,weatherlink.com 1.10,2013-03-24 20:11:00,
2013-03-24 16:26:00,29.4,23.0,30.05,North,355,2.0,-999.0,78,-99.99,,,0.00,weatherlink.com 1.10,2013-03-24 20:26:00,
2013-03-24 16:41:00,29.5,23.0,30.04,NE,44,2.0,-999.0,78,-99.99,,,0.00,weatherlink.com 1.10,2013-03-24 20:41:00,
2013-03-24 16:56:00,29.4,23.0,30.04,NNW,331,1.0,-999.0,78,-99.99,,,0.00,weatherlink.com 1.10,2013-03-24 20:56:00,
2013-03-24 17:11:00,29.3,23.0,30.03,NE,49,2.0,-999.0,78,-99.99,,,0.00,weatherlink.com 1.10,2013-03-24 21:11:00,
2013-03-24 17:41:00,28.7,23.0,30.03,NNE,26,6.0,-999.0,78,-99.99,,,0.00,weatherlink.com 1.10,2013-03-24 21:41:00,
2013-03-24 18:11:00,28.3,23.0,30.02,NE,35,1.0,-999.0,81,-99.99,,,0.00,weatherlink.com 1.10,2013-03-24 22:11:00,
2013-03-24 18:26:00,28.1,23.0,30.02,NNE,33,13.0,-999.0,81,-99.99,,,0.00,weatherlink.com 1.10,2013-03-24 22:26:00,
2013-03-24 18:41:00,27.9,23.0,30.02,NNE,18,3.0,-999.0,82,-99.99,,,0.00,weatherlink.com 1.10,2013-03-24 22:41:00,
2013-03-24 19:11:00,27.9,23.0,30.02,North,360,1.0,-999.0,83,-99.99,,,0.00,weatherlink.com 1.10,2013-03-24 23:11:00,
2013-03-24 20:11:00,27.3,23.0,30.02,NNE,30,0.0,-999.0,84,-99.99,,,0.00,weatherlink.com 1.10,2013-03-25 00:11:00,
2013-03-24 20:26:00,27.1,23.0,30.02,NW,313,1.0,-999.0,85,-99.99,,,0.00,weatherlink.com 1.10,2013-03-25 00:26:00,
2013-03-24 20:41:00,27.0,23.0,30.02,NE,37,0.0,-999.0,86,-99.99,,,0.00,weatherlink.com 1.10,2013-03-25 00:41:00,
2013-03-24 21:41:00,26.3,23.0,30.02,NNW,340,0.0,-999.0,86,-99.99,,,0.00,weatherlink.com 1.10,2013-03-25 01:41:00,
2013-03-24 21:56:00,26.0,22.0,30.02,NNE,26,0.0,-999.0,86,-99.99,,,0.00,weatherlink.com 1.10,2013-03-25 01:56:00,
2013-03-24 22:11:00,25.7,22.0,30.02,NNE,26,0.0,-999.0,86,-99.99,,,0.00,weatherlink.com 1.10,2013-03-25 02:11:00,
2013-03-24 22:41:00,25.1,22.0,30.02,NNE,26,0.0,-999.0,87,-99.99,,,0.00,weatherlink.com 1.10,2013-03-25 02:41:00,
2013-03-24 22:56:00,24.9,22.0,30.02,NNE,26,0.0,-999.0,87,-99.99,,,0.00,weatherlink.com 1.10,2013-03-25 02:56:00,
2013-03-24 23:26:00,25.4,22.0,30.01,NNW,343,0.0,-999.0,88,-99.99,,,0.00,weatherlink.com 1.10,2013-03-25 03:26:00,
2013-03-24 23:41:00,26.5,23.0,30.01,NNE,31,0.0,-999.0,88,-99.99,,,0.00,weatherlink.com 1.10,2013-03-25 03:41:00,
2013-03-24 23:56:00,27.1,24.0,30.01,NNE,31,0.0,-999.0,87,-99.99,,,0.00,weatherlink.com 1.10,2013-03-25 03:56:00,